User: anonymous   Login
Location: Capvern
(43.1036°N, 0.3160°E)
Time: 03:55:21
(UTC+00:00)
Language:

Cosmos 489 Rocket - Orbit

View from above orbital plane
View from above orbital plane
View from above satellite
View from above satellite

Ground track
Ground track

The orbit data is extracted from the following two-line orbital elements,

1 06020U 72035B   22017.44271954 -.00000038  00000-0 -14462-4 0  9997
2 06020  74.0212 355.0272 0021737 309.9469 165.9454 13.78856111499816
Epoch (UTC): 17 January 2022 10:37:30
Eccentricity: 0.0021737
inclination: 74.0212°
perigee height: 952 km
apogee height: 984 km
right ascension of ascending node: 355.0272°
argument of perigee: 309.9469°
revolutions per day: 13.78856111
mean anomaly at epoch: 165.9454°
orbit number at epoch: 49981

The dashed part of the orbit path shows where the satellite is in the earth's shadow,  

DLR